Weather History for KAEX - January, 2014

Change the Weather History Date:

Thursday, January 23, 2014

  Actual Average Record
Temperature  
Mean Temperature 36 °F 49 °F  
Max Temperature 46 °F 60 °F 81 °F (1943)
Min Temperature 25 °F 38 °F 14 °F (1948)
Degree Days  
Heating Degree Days 29 16  
Month to date heating degree days 461 368  
Since 1 July heating degree days 1346 1157  
Moisture  
Dew Point 27 °F    
Average Humidity 66    
Maximum Humidity 92    
Minimum Humidity 40    
Precipitation  
Precipitation 0.09 in 0.17 in 3.01 in (1980)
Month to date precipitation 1.52 3.65  
Year to date precipitation 1.52 3.65  
Snow  
Snow 1.40 in - 8.20 in (1940)
Month to date snowfall 1.4  
Since 1 July snowfall 1.4  
Snow Depth 0.00 in    
Sea Level Pressure  
Sea Level Pressure 30.51 in    
Wind  
Wind Speed 10 mph (NNE)    
Max Wind Speed 21 mph    
Max Gust Speed 31 mph    
Visibility 5 miles    
Events Rain , Snow    
T = Trace of Precipitation, MM = Missing Value Source: NWS Daily Summary

Daily Weather History Graph

Daily Weather History Graph

Search for Another Location

Airport or City:

Trip Planner

Search our weather history database for the weather conditions in past years. The results will help you decide how hot, cold, wet, or windy it might be!

Date:

Astronomy

Jan. 23, 2014 Rise Set
Actual Time 7:07 AM CST 5:37 PM CST
Civil Twilight 6:41 AM CST 6:03 PM CST
Nautical Twilight 6:12 AM CST 6:32 PM CST
Astronomical Twilight 5:43 AM CST 7:01 PM CST
Moon No Moon Rise 11:12 AM CST (1/23)
Length of Visible Light 11h 21m
Length of Day
10h 29m
Waning Gibbous, 55% of the Moon is Illuminated
Jan 23
Waning Gibbous
Jan 23
Last Quarter
Jan 30
New
Feb 6
First Quarter
Feb 14
Full

Hourly Weather History & Observations

Time (CST) Temp. Windchill Dew Point Humidity Pressure Visibility Wind Dir Wind Speed Gust Speed Precip Events Conditions
12:53 AM 43.0 °F 41.3 °F 36.0 °F 76% 30.19 in 10.0 mi SSE 3.5 mph - N/A   Clear
1:53 AM 39.9 °F - 36.0 °F 86% 30.19 in 10.0 mi Calm Calm - N/A   Clear
2:53 AM 42.1 °F - 37.0 °F 82% 30.20 in 10.0 mi Calm Calm - N/A   Scattered Clouds
3:53 AM 39.9 °F 37.8 °F 36.0 °F 86% 30.22 in 10.0 mi NE 3.5 mph - N/A   Clear
4:53 AM 42.1 °F 38.4 °F 36.0 °F 79% 30.23 in 10.0 mi East 5.8 mph - N/A   Mostly Cloudy
5:53 AM 42.1 °F - 35.1 °F 76% 30.27 in 10.0 mi Calm Calm - N/A   Mostly Cloudy
6:31 AM 41.0 °F 37.1 °F 33.1 °F 73% 30.27 in 10.0 mi ENE 5.8 mph - N/A   Mostly Cloudy
6:53 AM 43.0 °F 38.8 °F 34.0 °F 71% 30.29 in 10.0 mi NE 6.9 mph - N/A   Overcast
7:53 AM 43.0 °F 36.4 °F 30.9 °F 62% 30.33 in 10.0 mi NE 12.7 mph - N/A   Overcast
8:06 AM 43.0 °F 37.7 °F 28.9 °F 58% 30.32 in 10.0 mi NNE 9.2 mph - N/A   Overcast
8:53 AM 42.1 °F 34.5 °F 26.1 °F 53% 30.37 in 10.0 mi NE 15.0 mph 20.7 mph N/A   Overcast
9:53 AM 45.0 °F 38.5 °F 23.0 °F 42% 30.39 in 10.0 mi ENE 13.8 mph - 0.00 in   Overcast
10:53 AM 45.0 °F 39.3 °F 21.0 °F 39% 30.43 in 10.0 mi ENE 11.5 mph 23.0 mph N/A   Overcast
11:53 AM 44.1 °F 37.4 °F 24.1 °F 45% 30.42 in 10.0 mi NNE 13.8 mph 21.9 mph N/A   Overcast
12:53 PM 43.0 °F 38.2 °F 25.0 °F 49% 30.43 in 10.0 mi NNE 8.1 mph - N/A   Overcast
1:53 PM 43.0 °F 37.2 °F 24.1 °F 47% 30.42 in 10.0 mi NNE 10.4 mph 20.7 mph N/A   Overcast
2:53 PM 37.9 °F 28.9 °F 24.1 °F 57% 30.45 in 10.0 mi NE 16.1 mph 25.3 mph N/A   Overcast
3:53 PM 34.0 °F 24.6 °F 28.0 °F 79% 30.48 in 6.0 mi NNE 13.8 mph 26.5 mph 0.01 in Rain Light Rain
4:53 PM 33.1 °F 22.6 °F 28.9 °F 85% 30.52 in 5.0 mi NNE 16.1 mph 20.7 mph 0.02 in Rain Rain
5:12 PM 33.1 °F 24.9 °F 30.0 °F 89% 30.51 in 3.0 mi North 10.4 mph 18.4 mph 0.04 in Rain Light Freezing Rain
5:50 PM 32.0 °F 23.0 °F 28.4 °F 87% 30.53 in 6.0 mi NNE 11.5 mph 23.0 mph 0.06 in Rain Light Freezing Rain
5:53 PM 32.0 °F 22.5 °F 28.9 °F 88% 30.55 in 6.0 mi NNE 12.7 mph 19.6 mph 0.06 in Rain Light Freezing Rain
6:09 PM 32.0 °F 23.0 °F 28.9 °F 88% 30.54 in 6.0 mi NNE 11.5 mph - N/A Rain Light Freezing Rain
6:19 PM 32.0 °F 23.0 °F 28.9 °F 88% 30.55 in 6.0 mi North 11.5 mph 21.9 mph N/A Rain Light Freezing Rain
6:49 PM 30.2 °F 19.8 °F 28.4 °F 93% 30.57 in 4.0 mi NNE 13.8 mph 24.2 mph N/A Snow Light Snow
6:53 PM 30.9 °F 20.2 °F 28.0 °F 89% 30.59 in 3.0 mi NNE 15.0 mph 26.5 mph N/A Snow Light Snow
6:56 PM 30.9 °F 20.7 °F 28.0 °F 89% 30.57 in 2.5 mi NNE 13.8 mph 26.5 mph N/A Snow Light Snow
7:14 PM 30.0 °F 20.0 °F 28.0 °F 92% 30.58 in 2.0 mi NNE 12.7 mph - N/A Snow Light Snow
7:18 PM 30.0 °F 19.5 °F 28.0 °F 92% 30.58 in 1.8 mi NNE 13.8 mph - N/A Snow Light Snow
7:29 PM 30.0 °F 20.0 °F 27.0 °F 88% 30.59 in 2.0 mi NNE 12.7 mph 20.7 mph N/A Snow Light Snow
7:40 PM 30.0 °F 21.7 °F 27.0 °F 88% 30.60 in 1.8 mi NNE 9.2 mph - N/A Snow Light Snow
7:53 PM 28.9 °F 18.2 °F 27.0 °F 92% 30.62 in 1.8 mi NE 13.8 mph 21.9 mph N/A Snow Light Snow
8:01 PM 28.9 °F 18.6 °F 26.1 °F 89% 30.61 in 2.0 mi NNE 12.7 mph 21.9 mph N/A Snow Light Snow
8:15 PM 28.0 °F 16.5 °F 25.0 °F 88% 30.62 in 1.5 mi NNE 15.0 mph - N/A Snow Light Snow
8:23 PM 28.0 °F 17.0 °F 25.0 °F 88% 30.63 in 1.2 mi NNE 13.8 mph - N/A Snow Light Snow
8:37 PM 27.0 °F 15.2 °F 24.1 °F 89% 30.64 in 3.0 mi NNE 15.0 mph 28.8 mph N/A Snow Light Snow
8:45 PM 27.0 °F 13.9 °F 23.0 °F 85% 30.64 in 2.0 mi NNE 18.4 mph 24.2 mph N/A Snow Light Snow
8:53 PM 26.1 °F 13.6 °F 23.0 °F 88% 30.66 in 2.5 mi NNE 16.1 mph 26.5 mph N/A Snow Light Snow
9:27 PM 26.1 °F 15.6 °F 23.0 °F 88% 30.66 in 2.5 mi NNE 11.5 mph 18.4 mph N/A Snow Light Snow
9:40 PM 26.1 °F 15.6 °F 21.9 °F 84% 30.67 in 2.5 mi NNE 11.5 mph - N/A Snow Light Snow
9:49 PM 26.6 °F 18.2 °F 23.0 °F 86% 30.67 in 3.0 mi North 8.1 mph 17.3 mph N/A Snow Light Snow
9:53 PM 26.1 °F 17.6 °F 23.0 °F 88% 30.69 in 3.0 mi NNE 8.1 mph - N/A Snow Light Snow
10:06 PM 25.0 °F 13.6 °F 21.9 °F 88% 30.67 in 2.5 mi NNE 12.7 mph 18.4 mph N/A Snow Light Snow
10:25 PM 25.0 °F 14.8 °F 21.9 °F 88% 30.68 in 2.0 mi NNE 10.4 mph - N/A Snow Light Snow
10:35 PM 25.0 °F 15.5 °F 21.9 °F 88% 30.68 in 1.8 mi NNE 9.2 mph - N/A Snow Light Snow
10:53 PM 25.0 °F 16.3 °F 21.9 °F 88% 30.71 in 1.5 mi NNE 8.1 mph - N/A Snow Light Snow
11:34 PM 25.0 °F 14.2 °F 21.0 °F 85% 30.68 in 2.0 mi NNE 11.5 mph 20.7 mph N/A Snow Light Snow
11:44 PM 25.0 °F 14.8 °F 21.9 °F 88% 30.68 in 3.0 mi North 10.4 mph - N/A Snow Light Snow
11:53 PM 25.0 °F 15.5 °F 21.0 °F 85% 30.71 in 3.0 mi NNE 9.2 mph - N/A Snow Light Snow